When you browse on this site, cookies collect data to enhance your experience and personalize the content and advertising you see.
Visit our Privacy Policy to learn more. By continuing to use the site, you agree to this use of cookies and data.
  • In Deutschland
  • Länderverzeichnis
  • Für 7 Tage
  • Wassertemperatur
  • Satellitenkarten
  • Wetterkarte
  • Widgets
  • user-avatar
    Anmelden

    Stündliche Wetter Minsk

    Heute, 25 April, Donnerstag

    Zeit Temperatur Niederschläge Wind Luftdruck Luftfeuchtigkeit
    00:00 +11°C° 0 mm 3 m/S 749 mmHg 61%
    01:00 +10°C° 0 mm 2 m/S 749 mmHg 63%
    02:00 +10°C° 0 mm 2 m/S 749 mmHg 65%
    03:00 +9°C° 0 mm 2 m/S 749 mmHg 66%
    04:00 +9°C° 0 mm 2 m/S 749 mmHg 67%
    05:00 +9°C° 0 mm 2 m/S 749 mmHg 68%
    06:00 +10°C° 0 mm 3 m/S 749 mmHg 64%
    07:00 +12°C° 0 mm 4 m/S 749 mmHg 59%
    08:00 +13°C° 0 mm 5 m/S 749 mmHg 55%
    09:00 +15°C° 0 mm 6 m/S 749 mmHg 49%
    10:00 +16°C° 0 mm 6 m/S 748 mmHg 44%
    11:00 +17°C° 0 mm 7 m/S 748 mmHg 39%
    12:00 +18°C° 0 mm 7 m/S 748 mmHg 37%
    13:00 +19°C° 0 mm 6 m/S 748 mmHg 36%
    14:00 +20°C° 0 mm 6 m/S 747 mmHg 35%
    15:00 +20°C° 0 mm 5 m/S 747 mmHg 38%
    16:00 +20°C° 0 mm 5 m/S 747 mmHg 40%
    17:00 +20°C° 0 mm 4 m/S 746 mmHg 42%
    18:00 +18°C° 0 mm 3 m/S 746 mmHg 47%
    19:00 +16°C° 0 mm 3 m/S 746 mmHg 51%
    20:00 +13°C° 0 mm 3 m/S 746 mmHg 55%
    21:00 +13°C° 0 mm 3 m/S 746 mmHg 57%
    22:00 +12°C° 0 mm 3 m/S 746 mmHg 59%
    23:00 +11°C° 0 mm 3 m/S 746 mmHg 61%

    Morgen, 26 April, Freitag

    Zeit Temperatur Niederschläge Wind Luftdruck Luftfeuchtigkeit
    00:00 +11°C° 0 mm 3 m/S 746 mmHg 63%
    01:00 +11°C° 0 mm 3 m/S 746 mmHg 66%
    02:00 +10°C° 0 mm 3 m/S 746 mmHg 69%
    03:00 +10°C° 0 mm 3 m/S 745 mmHg 71%
    04:00 +9°C° 0 mm 3 m/S 745 mmHg 73%
    05:00 +9°C° 0 mm 3 m/S 745 mmHg 76%
    06:00 +10°C° 0 mm 3 m/S 745 mmHg 73%
    07:00 +12°C° 0 mm 3 m/S 745 mmHg 70%
    08:00 +13°C° 0 mm 4 m/S 745 mmHg 67%
    09:00 +15°C° 0 mm 4 m/S 744 mmHg 62%
    10:00 +17°C° 0 mm 5 m/S 744 mmHg 57%
    11:00 +19°C° 0 mm 5 m/S 744 mmHg 52%
    12:00 +20°C° 0 mm 5 m/S 744 mmHg 51%
    13:00 +21°C° 0 mm 5 m/S 743 mmHg 49%
    14:00 +22°C° 0 mm 5 m/S 743 mmHg 47%
    15:00 +22°C° 0 mm 5 m/S 742 mmHg 48%
    16:00 +22°C° 0 mm 5 m/S 742 mmHg 49%
    17:00 +22°C° 0 mm 4 m/S 742 mmHg 51%
    18:00 +20°C° 0 mm 4 m/S 741 mmHg 56%
    19:00 +18°C° 0 mm 4 m/S 741 mmHg 62%
    20:00 +16°C° 0 mm 3 m/S 741 mmHg 68%
    21:00 +15°C° 0.3 mm 4 m/S 741 mmHg 71%
    22:00 +14°C° 0.3 mm 4 m/S 741 mmHg 73%
    23:00 +13°C° 0.3 mm 4 m/S 740 mmHg 76%

    übermorgen, 27 April, Samstag

    Zeit Temperatur Niederschläge Wind Luftdruck Luftfeuchtigkeit
    00:00 +13°C° 0.5 mm 4 m/S 740 mmHg 80%
    01:00 +12°C° 0.5 mm 4 m/S 740 mmHg 84%
    02:00 +12°C° 0.5 mm 4 m/S 739 mmHg 87%
    03:00 +12°C° 0 mm 3 m/S 739 mmHg 89%
    04:00 +11°C° 0 mm 3 m/S 738 mmHg 91%
    05:00 +11°C° 0 mm 3 m/S 738 mmHg 93%
    06:00 +12°C° 0 mm 3 m/S 738 mmHg 90%
    07:00 +13°C° 0 mm 4 m/S 738 mmHg 88%
    08:00 +14°C° 0 mm 4 m/S 738 mmHg 85%
    09:00 +17°C° 0.1 mm 4 m/S 738 mmHg 81%
    10:00 +18°C° 0.1 mm 4 m/S 738 mmHg 77%
    11:00 +20°C° 0.1 mm 4 m/S 737 mmHg 74%
    12:00 +21°C° 2.1 mm 4 m/S 737 mmHg 70%
    13:00 +21°C° 2.1 mm 4 m/S 737 mmHg 66%
    14:00 +22°C° 2.1 mm 4 m/S 736 mmHg 62%
    15:00 +22°C° 0.6 mm 4 m/S 736 mmHg 62%
    16:00 +22°C° 0.6 mm 3 m/S 736 mmHg 62%
    17:00 +24°C° 0.6 mm 2 m/S 735 mmHg 62%
    18:00 +21°C° 0.3 mm 2 m/S 735 mmHg 68%
    19:00 +19°C° 0.3 mm 2 m/S 735 mmHg 74%
    20:00 +18°C° 0.3 mm 2 m/S 735 mmHg 80%
    21:00 +17°C° 0.4 mm 3 m/S 735 mmHg 84%
    22:00 +16°C° 0.4 mm 3 m/S 735 mmHg 88%
    23:00 +16°C° 0.4 mm 3 m/S 735 mmHg 92%

    28 April, Sonntag

    Zeit Temperatur Niederschläge Wind Luftdruck Luftfeuchtigkeit
    00:00 +14°C° 0.4 mm 3 m/S 735 mmHg 93%
    01:00 +14°C° 0.4 mm 3 m/S 736 mmHg 95%
    02:00 +14°C° 0.4 mm 2 m/S 736 mmHg 96%
    03:00 +14°C° 0.1 mm 2 m/S 736 mmHg 96%
    04:00 +14°C° 0.1 mm 2 m/S 736 mmHg 97%
    05:00 +13°C° 0.1 mm 2 m/S 736 mmHg 97%
    06:00 +14°C° 0.1 mm 2 m/S 736 mmHg 95%
    07:00 +15°C° 0.1 mm 2 m/S 736 mmHg 92%
    08:00 +16°C° 0.1 mm 2 m/S 737 mmHg 89%
    09:00 +17°C° 0.3 mm 3 m/S 737 mmHg 85%
    10:00 +18°C° 0.3 mm 3 m/S 737 mmHg 81%
    11:00 +19°C° 0.3 mm 4 m/S 738 mmHg 76%
    12:00 +17°C° 0.6 mm 5 m/S 738 mmHg 78%
    13:00 +16°C° 0.6 mm 6 m/S 738 mmHg 79%
    14:00 +15°C° 0.6 mm 7 m/S 739 mmHg 81%
    15:00 +14°C° 0 mm 7 m/S 739 mmHg 80%
    16:00 +12°C° 0 mm 7 m/S 739 mmHg 79%
    17:00 +11°C° 0 mm 7 m/S 740 mmHg 79%
    18:00 +11°C° 0 mm 7 m/S 740 mmHg 77%
    19:00 +10°C° 0 mm 7 m/S 741 mmHg 76%
    20:00 +10°C° 0 mm 6 m/S 741 mmHg 74%
    21:00 +9°C° 0 mm 7 m/S 742 mmHg 69%
    22:00 +8°C° 0 mm 7 m/S 742 mmHg 63%
    23:00 +8°C° 0 mm 7 m/S 742 mmHg 58%

    29 April, Montag

    Zeit Temperatur Niederschläge Wind Luftdruck Luftfeuchtigkeit
    00:00 +6°C° 0 mm 7 m/S 743 mmHg 58%
    01:00 +5°C° 0 mm 7 m/S 743 mmHg 58%
    02:00 +4°C° 0 mm 7 m/S 743 mmHg 58%
    03:00 +3°C° 0 mm 7 m/S 743 mmHg 60%
    04:00 +2°C° 0 mm 7 m/S 744 mmHg 61%
    05:00 0°C° 0 mm 7 m/S 744 mmHg 63%
    06:00 +2°C° 0 mm 7 m/S 744 mmHg 60%
    07:00 +3°C° 0 mm 7 m/S 745 mmHg 57%
    08:00 +3°C° 0 mm 7 m/S 745 mmHg 55%
    09:00 +5°C° 0 mm 7 m/S 745 mmHg 51%
    10:00 +6°C° 0 mm 7 m/S 745 mmHg 48%
    11:00 +8°C° 0 mm 7 m/S 745 mmHg 45%
    12:00 +9°C° 0 mm 7 m/S 745 mmHg 44%
    13:00 +9°C° 0 mm 7 m/S 745 mmHg 44%
    14:00 +10°C° 0 mm 7 m/S 744 mmHg 44%
    15:00 +10°C° 0 mm 7 m/S 744 mmHg 45%
    16:00 +10°C° 0 mm 7 m/S 744 mmHg 46%
    17:00 +10°C° 0 mm 6 m/S 744 mmHg 47%
    18:00 +8°C° 0 mm 6 m/S 744 mmHg 51%
    19:00 +7°C° 0 mm 5 m/S 744 mmHg 54%
    20:00 +6°C° 0 mm 4 m/S 744 mmHg 58%
    21:00 +5°C° 0 mm 4 m/S 745 mmHg 60%
    22:00 +4°C° 0 mm 4 m/S 745 mmHg 62%
    23:00 +4°C° 0 mm 4 m/S 745 mmHg 64%

    30 April, Dienstag

    Zeit Temperatur Niederschläge Wind Luftdruck Luftfeuchtigkeit
    00:00 +3°C° 0 mm 4 m/S 745 mmHg 65%
    01:00 +3°C° 0 mm 3 m/S 745 mmHg 67%
    02:00 +2°C° 0 mm 3 m/S 745 mmHg 68%
    03:00 +2°C° 0 mm 3 m/S 745 mmHg 70%
    04:00 +1°C° 0 mm 3 m/S 745 mmHg 72%
    05:00 +1°C° 0 mm 3 m/S 745 mmHg 74%
    06:00 +2°C° 0 mm 3 m/S 745 mmHg 69%
    07:00 +4°C° 0 mm 4 m/S 745 mmHg 65%
    08:00 +6°C° 0 mm 4 m/S 745 mmHg 61%
    09:00 +7°C° 0 mm 4 m/S 745 mmHg 56%
    10:00 +8°C° 0 mm 5 m/S 745 mmHg 52%
    11:00 +9°C° 0 mm 5 m/S 745 mmHg 48%
    12:00 +10°C° 0 mm 5 m/S 745 mmHg 46%
    13:00 +12°C° 0 mm 5 m/S 744 mmHg 45%
    14:00 +12°C° 0 mm 5 m/S 744 mmHg 44%
    15:00 +12°C° 0 mm 5 m/S 744 mmHg 44%
    16:00 +12°C° 0 mm 5 m/S 744 mmHg 44%
    17:00 +12°C° 0 mm 5 m/S 744 mmHg 45%
    18:00 +10°C° 0 mm 4 m/S 744 mmHg 49%
    19:00 +9°C° 0 mm 3 m/S 744 mmHg 54%
    20:00 +7°C° 0 mm 3 m/S 744 mmHg 58%
    21:00 +7°C° 0 mm 2 m/S 744 mmHg 59%
    22:00 +6°C° 0 mm 2 m/S 744 mmHg 60%
    23:00 +6°C° 0 mm 1 m/S 744 mmHg 61%
    Mehr zeigen